Epoch = 2010 Mar. 25.0 TT T = 2010 Apr. 3.68211 TT Peri. = 41.28293 e = 0.7322146 Node = 64.82894 2000.0 q = 1.6218162 AU Incl. = 15.02815 a = 6.0564035 AU n = 0.06612746 P = 14.90 years
m1 = 10.5 + 5 logΔ + 15.0 log r(t - 50)